This demonstration page uses our WeatherBlox Daily Observations layout. Learn more.

Left ArrowRight Arrow

Hourly Observations for March 18, 2019

Temp ( °F °C ) Dew Point ( °F °C ) Humidity (%) Winds ( mph kmh ) Pressure ( in mb ) Visibility ( mi km ) Precip ( " mm )
12:52 am 00:52 Clear 33 0.6 29 -1.7 85 85 N 5 7 30.43 1031 10 16 0.00 0.00
1:52 am 01:52 Clear 34 1.1 29 -1.7 82 82 N 5 7 30.44 1031 10 16 0.00 0.00
2:52 am 02:52 Clear 34 1.1 28 -2.2 79 79 N 9 15 30.46 1031 10 16 0.00 0.00
3:52 am 03:52 Clear 32 0 28 -2.2 85 85 NNW 10 17 30.45 1031 10 16 0.00 0.00
4:52 am 04:52 Mostly Clear 31 -0.6 27 -2.8 85 85 NNW 9 15 30.45 1031 10 16 0.00 0.00
5:52 am 05:52 Mostly Clear 30 -1.1 27 -2.8 88 88 NNW 8 13 30.46 1031 10 16 0.00 0.00
6:25 am 06:25 Partly Cloudy 30 -1.1 27 -2.8 88 88 NW 6 9 30.51 1033 10 16 0.00 0.00
6:30 am 06:30 Mostly Cloudy 31 -0.6 27 -2.8 85 85 WNW 5 7 30.51 1033 10 16 0.00 0.00
6:52 am 06:52 Cloudy 31 -0.6 27 -2.8 85 85 NNW 8 13 30.48 1032 10 16 0.00 0.00
7:52 am 07:52 Cloudy with Mist and Fog 31 -0.6 27 -2.8 85 85 NNW 7 11 30.49 1032 4 6 0.00 0.00
8:52 am 08:52 Cloudy with Mist and Fog 31 -0.6 27 -2.8 85 85 N 8 13 30.49 1033 3 5 0.00 0.00
9:52 am 09:52 Cloudy with Mist and Fog 31 -0.6 27 -2.8 85 85 NNW 6 9 30.50 1033 4 6 0.00 0.00
10:42 am 10:42 Mostly Cloudy with Haze 33 0.6 28 -2.2 82 82 N 6 9 30.53 1034 5 8 0.00 0.00
10:52 am 10:52 Mostly Cloudy with Haze 34 1.1 28 -2.2 79 79 N 6 9 30.51 1033 6 10 0.00 0.00
11:52 am 11:52 Mostly Cloudy 39 3.9 29 -1.7 67 67 Calm 30.50 1033 10 16 0.00 0.00
12:52 pm 12:52 Mostly Cloudy 42 5.6 26 -3.3 53 53 NNW 6 9 30.48 1032 10 16 0.00 0.00
1:52 pm 13:52 Mostly Cloudy 45 7.2 24 -4.4 44 44 ENE 6 9 30.45 1031 10 16 0.00 0.00
2:52 pm 14:52 Mostly Cloudy 46 7.8 23 -5 40 40 NNE 7 11 30.42 1030 10 16 0.00 0.00
3:52 pm 15:52 Mostly Cloudy 45 7.2 26 -3.3 48 48 N 8 13 30.39 1029 10 16 0.00 0.00
4:52 pm 16:52 Mostly Cloudy 46 7.8 23 -5 40 40 N 7 11 30.37 1028 10 16 0.00 0.00
5:52 pm 17:52 Mostly Cloudy 44 6.7 24 -4.4 45 45 NNE 5 7 30.36 1028 10 16 0.00 0.00
6:52 pm 18:52 Cloudy 45 7.2 20 -6.7 37 37 S 8 13 30.36 1028 10 16 0.00 0.00
7:52 pm 19:52 Cloudy 42 5.6 20 -6.7 41 41 SSE 6 9 30.36 1028 10 16 0.00 0.00
8:52 pm 20:52 Cloudy 42 5.6 18 -7.8 38 38 Calm 30.36 1028 10 16 0.00 0.00
9:52 pm 21:52 Cloudy 40 4.4 23 -5 51 51 SSE 5 7 30.35 1028 10 16 0.00 0.00
10:52 pm 22:52 Cloudy 39 3.9 21 -6.1 48 48 ESE 5 7 30.35 1028 10 16 0.00 0.00
11:52 pm 23:52 Cloudy 39 3.9 20 -6.7 46 46 SE 3 6 30.33 1027 10 16 0.00 0.00

Powered by AerisWeather